W8XLR-2 Weather Reports


time (UTC)temp
C
wind
direction
speed
KPH
gust
KPH
rain 1hr
cm
rain 24hr
cm
rain mn
cm
humidity
%
barometer
mb
20260510030649 12 223 4.8 8.0 0.03 2.01 1.93 94 1010.8
20260510030005 12 236 4.8 8.0 0.00 2.01 1.91 94 1011.3
20260510025648 12 236 4.8 8.0 0.00 2.01 1.91 94 1011.3
20260510024648 12 236 4.8 8.0 0.00 2.01 1.91 94 1011.3
20260510023649 12 222 4.8 8.0 0.00 2.01 1.91 94 1010.8
20260510022759 12 222 3.2 4.8 0.00 2.03 1.91 94 1010.6
20260510022650 12 222 3.2 4.8 0.00 2.03 1.91 94 1010.6
20260510021654 12 222 3.2 4.8 0.00 2.03 1.91 94 1010.6
20260510020649 12 233 3.2 8.0 0.10 2.06 1.91 94 1010.8
20260510015654 12 229 3.2 4.8 0.30 2.08 1.91 94 1010.7
20260510014649 12 229 3.2 4.8 0.30 2.08 1.91 94 1010.7
20260510013649 12 236 3.2 4.8 0.56 2.13 1.91 93 1010.5
20260510012650 12 247 3.2 4.8 0.84 2.16 1.91 93 1010.6
20260510011754 12 247 3.2 4.8 0.84 2.16 1.91 93 1010.6
20260510011650 12 247 3.2 4.8 0.84 2.16 1.91 93 1010.6
20260510010655 12 216 3.2 6.4 0.89 2.08 1.80 93 1010.0
20260510005748 12 298 1.6 4.8 0.69 1.88 1.60 92 1010.9
20260510005653 12 298 1.6 4.8 0.69 1.88 1.60 92 1010.9
20260510004648 12 298 1.6 4.8 0.69 1.88 1.60 92 1010.9
20260510003648 12 315 1.6 4.8 0.43 1.63 1.35 90 1010.8
20260510002649 13 293 3.2 11.3 0.15 1.35 1.07 84 1010.8
20260510001836 13 293 3.2 11.3 0.15 1.35 1.07 84 1010.8
20260510001653 13 293 3.2 11.3 0.15 1.35 1.07 84 1010.8
20260510000659 17 339 4.8 17.7 0.00 1.19 0.91 66 1010.0
20260509235732 18 231 3.2 12.9 0.00 1.19 0.91 60 1008.4
20260509235650 18 231 3.2 12.9 0.00 1.19 0.91 60 1008.4
20260509234726 18 231 3.2 12.9 0.00 1.19 0.91 60 1008.4
20260509234648 18 231 3.2 12.9 0.00 1.19 0.91 60 1008.4
20260509233651 18 241 4.8 9.7 0.00 1.19 0.91 60 1008.1
20260509232648 18 249 4.8 12.9 0.00 1.22 0.91 60 1008.3
20260509231650 18 249 4.8 12.9 0.00 1.22 0.91 60 1008.3
20260509230650 19 240 6.4 14.5 0.00 1.22 0.91 60 1007.9
20260509225648 19 236 8.0 20.9 0.00 1.22 0.91 58 1007.9
20260509224814 19 236 8.0 20.9 0.00 1.22 0.91 58 1007.9
20260509224653 19 236 8.0 20.9 0.00 1.22 0.91 58 1007.9
20260509223649 20 241 6.4 16.1 0.00 1.22 0.91 58 1008.0
20260509222742 20 246 6.4 17.7 0.00 1.22 0.91 59 1007.8
20260509222650 20 246 6.4 17.7 0.00 1.22 0.91 59 1007.8
20260509221648 20 246 6.4 17.7 0.00 1.22 0.91 59 1007.8
20260509220649 20 244 8.0 17.7 0.00 1.22 0.91 59 1007.8
20260509215754 20 241 8.0 19.3 0.00 1.24 0.91 58 1008.0
20260509215648 20 241 8.0 19.3 0.00 1.24 0.91 58 1008.0
20260509214648 20 241 8.0 19.3 0.00 1.24 0.91 58 1008.0
20260509213649 20 245 6.4 14.5 0.00 1.24 0.91 58 1008.0
20260509212751 20 254 4.8 14.5 0.00 1.27 0.91 60 1008.2
20260509212648 20 254 4.8 14.5 0.00 1.27 0.91 60 1008.2
20260509211921 20 254 4.8 14.5 0.00 1.27 0.91 60 1008.2
20260509211820 20 254 4.8 14.5 0.00 1.27 0.91 60 1008.2
20260509211649 20 254 4.8 14.5 0.00 1.27 0.91 60 1008.2
20260509210648 20 235 6.4 14.5 0.00 1.32 0.91 62 1008.3
20260509205734 19 242 6.4 17.7 0.00 1.32 0.91 61 1008.5
20260509205648 19 242 6.4 17.7 0.00 1.32 0.91 61 1008.5
20260509204651 19 242 6.4 17.7 0.00 1.32 0.91 61 1008.5
20260509203648 19 246 6.4 14.5 0.00 1.32 0.91 61 1008.5
20260509202651 19 246 8.0 17.7 0.00 1.32 0.91 63 1008.7
20260509201649 19 246 8.0 17.7 0.00 1.32 0.91 63 1008.7
20260509200649 20 252 4.8 19.3 0.00 1.32 0.91 64 1008.9
20260509195749 18 243 6.4 14.5 0.00 1.32 0.91 64 1009.2
20260509195648 18 243 6.4 14.5 0.00 1.32 0.91 64 1009.2
20260509194734 18 243 6.4 14.5 0.00 1.32 0.91 64 1009.2
20260509194649 18 243 6.4 14.5 0.00 1.32 0.91 64 1009.2
20260509193650 18 240 6.4 16.1 0.00 1.32 0.91 65 1009.3
20260509192728 18 245 6.4 16.1 0.00 1.32 0.91 64 1009.6
20260509192648 18 245 6.4 16.1 0.00 1.32 0.91 64 1009.6
20260509191729 18 245 6.4 16.1 0.00 1.32 0.91 64 1009.6
20260509191648 18 245 6.4 16.1 0.00 1.32 0.91 64 1009.6
20260509190652 18 258 6.4 12.9 0.00 1.32 0.91 64 1009.6
20260509185648 18 248 6.4 16.1 0.00 1.32 0.91 67 1009.5
20260509184655 18 248 6.4 16.1 0.00 1.32 0.91 67 1009.5
20260509183649 18 256 6.4 14.5 0.00 1.32 0.91 67 1009.8
20260509182731 17 239 4.8 17.7 0.00 1.32 0.91 69 1009.9
20260509182650 17 239 4.8 17.7 0.00 1.32 0.91 69 1009.9
20260509181648 17 239 4.8 17.7 0.00 1.32 0.91 69 1009.9
20260509180649 17 250 4.8 12.9 0.00 1.32 0.91 75 1009.7
20260509175653 16 248 4.8 12.9 0.00 1.32 0.91 74 1009.9
20260509174648 16 248 4.8 12.9 0.00 1.32 0.91 74 1009.9
20260509173738 16 256 4.8 11.3 0.00 1.32 0.91 78 1010.0
20260509173651 16 256 4.8 11.3 0.00 1.32 0.91 78 1010.0
20260509172727 16 241 3.2 9.7 0.00 1.32 0.91 80 1010.0
20260509172648 16 241 3.2 9.7 0.00 1.32 0.91 80 1010.0
20260509171653 16 241 3.2 9.7 0.00 1.32 0.91 80 1010.0
20260509170653 15 253 4.8 12.9 0.00 1.32 0.91 81 1010.0
20260509165648 15 251 3.2 9.7 0.00 1.32 0.91 87 1010.4
20260509164655 15 251 3.2 9.7 0.00 1.32 0.91 87 1010.4
20260509163650 14 232 4.8 12.9 0.00 1.32 0.91 87 1010.5
20260509162648 13 238 3.2 11.3 0.00 1.32 0.91 90 1010.5
20260509160648 13 255 3.2 8.0 0.00 1.32 0.91 90 1010.3
20260509160005 12 253 3.2 6.4 0.00 1.32 0.91 92 1010.3
20260509155648 12 253 3.2 6.4 0.00 1.32 0.91 92 1010.3
20260509155005 12 253 3.2 6.4 0.00 1.32 0.91 92 1010.3
20260509154652 12 253 3.2 6.4 0.00 1.32 0.91 92 1010.3
20260509153649 12 242 3.2 6.4 0.00 1.32 0.91 93 1010.3
20260509152750 12 252 3.2 9.7 0.00 1.32 0.91 93 1010.4
20260509152648 12 252 3.2 9.7 0.00 1.32 0.91 93 1010.4
20260509151752 12 252 3.2 9.7 0.00 1.32 0.91 93 1010.4
20260509151654 12 252 3.2 9.7 0.00 1.32 0.91 93 1010.4
20260509150650 12 257 3.2 6.4 0.00 1.32 0.91 94 1010.4
20260509145742 12 251 3.2 6.4 0.00 1.32 0.91 95 1010.4
20260509145651 12 251 3.2 6.4 0.00 1.32 0.91 95 1010.4
20260509144650 12 251 3.2 6.4 0.00 1.32 0.91 95 1010.4
20260509143649 11 243 4.8 11.3 0.00 1.32 0.91 96 1010.1
20260509142647 11 246 3.2 8.0 0.00 1.32 0.91 96 1010.3
20260509141733 11 246 3.2 8.0 0.00 1.32 0.91 96 1010.3
20260509141649 11 246 3.2 8.0 0.00 1.32 0.91 96 1010.3
20260509140648 11 253 3.2 8.0 0.00 1.32 0.91 96 1010.1
20260509135759 11 243 3.2 11.3 0.00 1.32 0.91 97 1010.1
20260509135648 11 243 3.2 11.3 0.00 1.32 0.91 97 1010.1
20260509134648 11 243 3.2 11.3 0.00 1.32 0.91 97 1010.1
20260509133917 11 240 4.8 11.3 0.00 1.32 0.91 97 1010.2
20260509133653 11 240 4.8 11.3 0.00 1.32 0.91 97 1010.2
20260509133006 11 249 3.2 6.4 0.00 1.32 0.91 97 1010.6
20260509132650 11 249 3.2 6.4 0.00 1.32 0.91 97 1010.6
20260509131649 11 249 3.2 6.4 0.00 1.32 0.91 97 1010.6
20260509130649 10 247 3.2 6.4 0.00 1.32 0.91 97 1010.6
20260509125650 10 245 3.2 8.0 0.00 1.32 0.91 97 1010.5
20260509124647 10 245 3.2 8.0 0.00 1.32 0.91 97 1010.5
20260509123653 10 235 3.2 6.4 0.00 1.32 0.91 97 1010.5
20260509122813 10 236 3.2 4.8 0.00 1.32 0.91 97 1010.6
20260509122648 10 236 3.2 4.8 0.00 1.32 0.91 97 1010.6
20260509121648 10 236 3.2 4.8 0.00 1.32 0.91 97 1010.6
20260509120649 10 239 3.2 6.4 0.03 1.32 0.91 97 1010.7
20260509115647 10 237 3.2 6.4 0.05 1.32 0.91 97 1010.7
20260509114902 10 237 3.2 6.4 0.05 1.32 0.91 97 1010.7
20260509114650 10 237 3.2 6.4 0.05 1.32 0.91 97 1010.7
20260509113651 10 235 3.2 6.4 0.08 1.32 0.91 97 1010.5
20260509112647 10 233 1.6 4.8 0.13 1.32 0.91 97 1010.5
20260509112005 10 233 1.6 4.8 0.13 1.32 0.91 97 1010.5
20260509111648 10 233 1.6 4.8 0.13 1.32 0.91 97 1010.5
20260509110731 10 230 1.6 4.8 0.15 1.30 0.89 97 1010.4
20260509110654 10 230 1.6 4.8 0.15 1.30 0.89 97 1010.4
20260509105649 10 231 1.6 3.2 0.18 1.27 0.86 97 1010.4
20260509104647 10 231 1.6 3.2 0.18 1.27 0.86 97 1010.4
20260509103651 10 208 1.6 4.8 0.18 1.24 0.84 97 1010.6
20260509102648 10 214 3.2 6.4 0.15 1.19 0.79 96 1010.5
20260509101648 10 214 3.2 6.4 0.15 1.19 0.79 96 1010.5
20260509100655 10 217 4.8 8.0 0.10 1.14 0.74 96 1010.5
20260509095647 10 225 4.8 9.7 0.10 1.09 0.69 96 1010.7
20260509094728 10 225 4.8 9.7 0.10 1.09 0.69 96 1010.7
20260509094652 10 225 4.8 9.7 0.10 1.09 0.69 96 1010.7
20260509093739 9 216 3.2 8.0 0.10 1.07 0.66 96 1010.8
20260509093651 9 216 3.2 8.0 0.10 1.07 0.66 96 1010.8
20260509093006 9 222 3.2 11.3 0.15 1.04 0.64 96 1010.8
20260509092648 9 222 3.2 11.3 0.15 1.04 0.64 96 1010.8
20260509091652 9 222 3.2 11.3 0.15 1.04 0.64 96 1010.8
20260509090648 9 228 1.6 8.0 0.20 1.04 0.64 96 1011.0
20260509085803 9 213 3.2 6.4 0.15 0.99 0.58 96 1011.1
20260509085651 9 213 3.2 6.4 0.15 0.99 0.58 96 1011.1
20260509085009 9 213 3.2 6.4 0.15 0.99 0.58 96 1011.1
20260509084855 9 213 3.2 6.4 0.15 0.99 0.58 96 1011.1
20260509084650 9 213 3.2 6.4 0.15 0.99 0.58 96 1011.1
20260509083650 9 209 3.2 8.0 0.23 0.97 0.56 96 1011.2
20260509082744 9 207 3.2 8.0 0.20 0.89 0.48 96 1011.2
20260509082648 9 207 3.2 8.0 0.20 0.89 0.48 96 1011.2
20260509082010 9 207 3.2 8.0 0.20 0.89 0.48 96 1011.2
20260509081903 9 207 3.2 8.0 0.20 0.89 0.48 96 1011.2
20260509081651 9 207 3.2 8.0 0.20 0.89 0.48 96 1011.2
20260509081010 9 214 4.8 11.3 0.18 0.84 0.43 96 1011.2
20260509080649 9 214 4.8 11.3 0.18 0.84 0.43 96 1011.2
20260509075647 9 210 3.2 6.4 0.20 0.84 0.43 96 1011.5
20260509074648 9 210 3.2 6.4 0.20 0.84 0.43 96 1011.5
20260509073648 9 209 3.2 6.4 0.10 0.74 0.33 96 1011.5
20260509072652 9 207 3.2 8.0 0.08 0.69 0.28 96 1011.3
20260509071647 9 207 3.2 8.0 0.08 0.69 0.28 96 1011.3
20260509070648 9 200 3.2 6.4 0.05 0.66 0.25 96 1011.3
20260509065649 9 220 1.6 6.4 0.08 0.64 0.23 96 1011.5
20260509064651 9 220 1.6 6.4 0.08 0.64 0.23 96 1011.5
20260509063652 9 189 1.6 6.4 0.08 0.64 0.23 96 1011.6
20260509062650 9 198 1.6 6.4 0.10 0.61 0.20 96 1011.8
20260509061648 9 198 1.6 6.4 0.10 0.61 0.20 96 1011.8
20260509060649 9 173 1.6 8.0 0.13 0.61 0.20 96 1011.9
20260509055756 9 170 1.6 6.4 0.10 0.56 0.15 96 1012.1
20260509055648 9 170 1.6 6.4 0.10 0.56 0.15 96 1012.1
20260509054648 9 170 1.6 6.4 0.10 0.56 0.15 96 1012.1
20260509053648 9 178 3.2 17.7 0.10 0.56 0.15 95 1012.4
20260509052800 9 148 1.6 6.4 0.08 0.51 0.10 95 1012.5
20260509052728 9 148 1.6 6.4 0.08 0.51 0.10 95 1012.5
20260509052648 9 148 1.6 6.4 0.08 0.51 0.10 95 1012.5
20260509051649 9 148 1.6 6.4 0.08 0.51 0.10 95 1012.5
20260509050649 9 186 1.6 6.4 0.08 0.48 0.08 95 1012.6
20260509045648 9 161 1.6 4.8 0.08 0.46 0.05 95 1012.8
20260509044648 9 161 1.6 4.8 0.08 0.46 0.05 95 1012.8
20260509044011 9 177 1.6 6.4 0.10 0.46 0.05 95 1012.9
20260509043656 9 177 1.6 6.4 0.10 0.46 0.05 95 1012.9
20260509043008 9 176 1.6 4.8 0.10 0.43 0.03 95 1013.0
20260509042654 9 176 1.6 4.8 0.10 0.43 0.03 95 1013.0
20260509041648 9 176 1.6 4.8 0.10 0.43 0.03 95 1013.0
20260509040649 9 171 3.2 11.3 0.08 0.41 0.00 95 1013.1
20260509035849 9 213 3.2 9.7 0.08 0.38 0.38 95 1013.5
20260509035647 9 213 3.2 9.7 0.08 0.38 0.38 95 1013.5
20260509035006 9 213 3.2 9.7 0.08 0.38 0.38 95 1013.5
20260509034650 9 213 3.2 9.7 0.08 0.38 0.38 95 1013.5
20260509033651 9 205 3.2 9.7 0.05 0.36 0.36 95 1013.5
20260509032654 9 206 1.6 4.8 0.05 0.33 0.33 95 1013.6
20260509031649 9 206 1.6 4.8 0.05 0.33 0.33 95 1013.6